UNQ744 LIBR-LGTS

Flight info

Callsign UNQ744
Flight time 0h 48m
Altitude 19000
Route XAPAT M603 GOKEL DCT PINDO UM603 EDASI
Aircraft A320/M-SDE3FGHIRWY/LB1

Departure

Time 2026-04-18 10:36
Airport Brindisi Airport (LIBR)

Arrival

Time 2026-04-18 11:25
Airport Thessaloniki Macedonia International Airport (LGTS)
Time Latitude Longitude Altitude Speed Heading
2026-04-18 09:45 40.65737 17.93988 56 ft 0 kts 358°
2026-04-18 10:27 40.65720 17.93990 50 ft 4 kts 348°
2026-04-18 10:27 40.65695 17.94000 48 ft 4 kts 334°
2026-04-18 10:28 40.65671 17.94017 56 ft 4 kts 329°
2026-04-18 10:28 40.65647 17.94032 49 ft 4 kts 354°
2026-04-18 10:28 40.65635 17.94031 49 ft 0 kts 52°
2026-04-18 10:30 40.65637 17.94034 56 ft 3 kts 52°
2026-04-18 10:31 40.65661 17.94075 53 ft 6 kts 52°
2026-04-18 10:31 40.65684 17.94114 52 ft 5 kts 52°
2026-04-18 10:31 40.65708 17.94156 55 ft 10 kts 52°
2026-04-18 10:31 40.65768 17.94257 52 ft 16 kts 52°
2026-04-18 10:32 40.65841 17.94382 54 ft 18 kts 52°
2026-04-18 10:32 40.65923 17.94521 53 ft 20 kts 52°
2026-04-18 10:32 40.66004 17.94659 54 ft 14 kts 51°
2026-04-18 10:32 40.66018 17.94764 55 ft 11 kts 119°
2026-04-18 10:33 40.65967 17.94829 58 ft 9 kts 140°
2026-04-18 10:33 40.65927 17.94876 55 ft 7 kts 136°
2026-04-18 10:33 40.65886 17.94926 56 ft 11 kts 136°
2026-04-18 10:33 40.65833 17.94992 51 ft 10 kts 136°
2026-04-18 10:34 40.65786 17.95051 53 ft 9 kts 136°
2026-04-18 10:34 40.65745 17.95101 53 ft 8 kts 137°
2026-04-18 10:34 40.65709 17.95145 53 ft 7 kts 137°
2026-04-18 10:34 40.65669 17.95151 56 ft 6 kts 199°
2026-04-18 10:35 40.65641 17.95124 49 ft 4 kts 224°
2026-04-18 10:35 40.65621 17.95095 57 ft 8 kts 227°
2026-04-18 10:35 40.65594 17.94991 57 ft 15 kts 310°
2026-04-18 10:35 40.65674 17.94891 56 ft 22 kts 317°
2026-04-18 10:36 40.65964 17.94539 51 ft 90 kts 317°
2026-04-18 10:36 40.66557 17.93810 55 ft 141 kts 317°
2026-04-18 10:36 40.67325 17.92827 405 ft 158 kts 315°
2026-04-18 10:36 40.68119 17.91816 1175 ft 159 kts 323°
2026-04-18 10:37 40.68939 17.90818 1868 ft 162 kts 324°
2026-04-18 10:37 40.69765 17.89829 2494 ft 164 kts 326°
2026-04-18 10:37 40.70609 17.88811 3116 ft 165 kts 323°
2026-04-18 10:37 40.71476 17.87795 3645 ft 171 kts 330°
2026-04-18 10:38 40.72559 17.87005 3978 ft 186 kts 342°
2026-04-18 10:38 40.73861 17.86518 4308 ft 204 kts 353°
2026-04-18 10:38 40.75366 17.86407 4626 ft 229 kts
2026-04-18 10:38 40.76980 17.86934 5088 ft 251 kts 22°
2026-04-18 10:39 40.78530 17.88170 5676 ft 270 kts 38°
2026-04-18 10:39 40.79819 17.90025 6516 ft 276 kts 54°
2026-04-18 10:39 40.80596 17.92338 7542 ft 279 kts 74°
2026-04-18 10:39 40.80651 17.94906 8480 ft 286 kts 96°
2026-04-18 10:40 40.79997 17.97414 9377 ft 295 kts 115°
2026-04-18 10:40 40.78776 17.99639 10157 ft 303 kts 125°
2026-04-18 10:40 40.77432 18.01868 10593 ft 321 kts 126°
2026-04-18 10:40 40.75983 18.04249 10823 ft 345 kts 126°
2026-04-18 10:41 40.74440 18.06778 11192 ft 360 kts 127°
2026-04-18 10:41 40.72850 18.09375 11830 ft 367 kts 127°
2026-04-18 10:41 40.71231 18.12016 12492 ft 373 kts 127°
2026-04-18 10:41 40.69589 18.14697 13165 ft 379 kts 127°
2026-04-18 10:42 40.67927 18.17416 13826 ft 384 kts 127°
2026-04-18 10:42 40.66238 18.20179 14433 ft 388 kts 127°
2026-04-18 10:42 40.64537 18.22956 15062 ft 392 kts 127°
2026-04-18 10:42 40.62890 18.25831 15675 ft 394 kts 120°
2026-04-18 10:43 40.61660 18.29057 16277 ft 395 kts 108°
2026-04-18 10:43 40.60940 18.32527 16873 ft 394 kts 96°
2026-04-18 10:43 40.60742 18.36119 17478 ft 394 kts 87°
2026-04-18 10:43 40.60718 18.39733 18083 ft 397 kts 87°
2026-04-18 10:44 40.60683 18.43383 18636 ft 400 kts 87°
2026-04-18 10:44 40.60638 18.47063 18906 ft 404 kts 87°
2026-04-18 10:44 40.60588 18.50774 18981 ft 410 kts 87°
2026-04-18 10:44 40.60537 18.54557 18989 ft 414 kts 87°
2026-04-18 10:45 40.60483 18.58345 18980 ft 415 kts 87°
2026-04-18 10:45 40.60428 18.62150 18980 ft 415 kts 87°
2026-04-18 10:45 40.60373 18.65955 18980 ft 416 kts 87°
2026-04-18 10:45 40.60317 18.69751 18980 ft 416 kts 87°
2026-04-18 10:46 40.60259 18.73558 18975 ft 416 kts 87°
2026-04-18 10:46 40.60203 18.77362 18975 ft 416 kts 87°
2026-04-18 10:46 40.60144 18.81172 18977 ft 416 kts 87°
2026-04-18 10:46 40.60085 18.84981 18964 ft 416 kts 87°
2026-04-18 10:47 40.60024 18.88790 18963 ft 417 kts 87°
2026-04-18 10:47 40.59962 18.92604 18963 ft 417 kts 87°
2026-04-18 10:47 40.59898 18.96420 18964 ft 417 kts 87°
2026-04-18 10:47 40.59831 19.00232 18958 ft 417 kts 88°
2026-04-18 10:48 40.59707 19.04053 18961 ft 418 kts 89°
2026-04-18 10:48 40.59526 19.07825 18959 ft 418 kts 90°
2026-04-18 10:48 40.59308 19.11643 18959 ft 419 kts 90°
2026-04-18 10:48 40.59077 19.15461 18954 ft 419 kts 90°
2026-04-18 10:49 40.58845 19.19291 18943 ft 420 kts 90°
2026-04-18 10:49 40.58619 19.23123 18938 ft 420 kts 90°
2026-04-18 10:49 40.58403 19.26959 18920 ft 421 kts 90°
2026-04-18 10:49 40.58195 19.30800 18919 ft 421 kts 90°
2026-04-18 10:50 40.57992 19.34638 18919 ft 421 kts 90°
2026-04-18 10:50 40.57786 19.38484 18919 ft 421 kts 90°
2026-04-18 10:50 40.57576 19.42326 18911 ft 421 kts 90°
2026-04-18 10:50 40.57364 19.46165 18922 ft 421 kts 90°
2026-04-18 10:51 40.57151 19.50011 18912 ft 422 kts 90°
2026-04-18 10:51 40.56936 19.53866 18900 ft 422 kts 90°
2026-04-18 10:51 40.56717 19.57715 18897 ft 423 kts 90°
2026-04-18 10:51 40.56498 19.61567 18897 ft 423 kts 90°
2026-04-18 10:52 40.56279 19.65427 18894 ft 423 kts 90°
2026-04-18 10:52 40.56060 19.69282 18892 ft 423 kts 90°
2026-04-18 10:52 40.55839 19.73144 18895 ft 423 kts 90°
2026-04-18 10:52 40.55619 19.77001 18898 ft 423 kts 90°
2026-04-18 10:53 40.55396 19.80861 18920 ft 424 kts 90°
2026-04-18 10:53 40.55169 19.84723 18920 ft 424 kts 90°
2026-04-18 10:53 40.54936 19.88594 18920 ft 424 kts 91°
2026-04-18 10:53 40.54699 19.92457 18919 ft 424 kts 91°
2026-04-18 10:54 40.54463 19.96318 18925 ft 424 kts 90°
2026-04-18 10:54 40.54231 20.00177 18918 ft 424 kts 90°
2026-04-18 10:54 40.54002 20.04044 18920 ft 424 kts 90°
2026-04-18 10:54 40.53775 20.07853 18932 ft 424 kts 90°
2026-04-18 10:55 40.53542 20.11714 18935 ft 424 kts 91°
2026-04-18 10:55 40.53307 20.15581 18938 ft 423 kts 91°
2026-04-18 10:55 40.53072 20.19436 18936 ft 424 kts 91°
2026-04-18 10:55 40.52834 20.23294 18941 ft 424 kts 91°
2026-04-18 10:56 40.52591 20.27157 18943 ft 424 kts 91°
2026-04-18 10:56 40.52343 20.31015 18941 ft 424 kts 91°
2026-04-18 10:56 40.52094 20.34870 18959 ft 424 kts 91°
2026-04-18 10:56 40.51849 20.38731 18963 ft 424 kts 91°
2026-04-18 10:57 40.51605 20.42599 18963 ft 424 kts 90°
2026-04-18 10:57 40.51362 20.46452 18969 ft 424 kts 91°
2026-04-18 10:57 40.51115 20.50311 18993 ft 423 kts 91°
2026-04-18 10:57 40.50864 20.54164 18994 ft 424 kts 91°
2026-04-18 10:58 40.50608 20.58026 18992 ft 424 kts 91°
2026-04-18 10:58 40.50353 20.61879 18997 ft 423 kts 91°
2026-04-18 10:58 40.50185 20.64423 18997 ft 423 kts 91°
2026-04-18 10:58 40.49928 20.68280 18998 ft 423 kts 91°
2026-04-18 10:59 40.49671 20.72130 18998 ft 423 kts 91°
2026-04-18 10:59 40.49331 20.77238 19003 ft 423 kts 91°
2026-04-18 10:59 40.49074 20.81089 19027 ft 423 kts 92°
2026-04-18 10:59 40.48816 20.84903 18978 ft 416 kts 92°
2026-04-18 11:00 40.48642 20.87457 18987 ft 415 kts 92°
2026-04-18 11:00 40.48381 20.91232 18989 ft 415 kts 92°
2026-04-18 11:00 40.48122 20.95003 18989 ft 415 kts 92°
2026-04-18 11:00 40.47840 20.98777 18990 ft 414 kts 93°
2026-04-18 11:01 40.47510 21.02538 19003 ft 415 kts 94°
2026-04-18 11:01 40.47152 21.06302 18988 ft 415 kts 94°
2026-04-18 11:01 40.46781 21.10052 18990 ft 415 kts 94°
2026-04-18 11:02 40.46050 21.17521 19005 ft 415 kts 94°
2026-04-18 11:02 40.45693 21.21277 19011 ft 415 kts 94°
2026-04-18 11:02 40.45340 21.25034 19010 ft 414 kts 94°
2026-04-18 11:02 40.45116 21.28791 19009 ft 411 kts 86°
2026-04-18 11:03 40.45156 21.32545 19008 ft 411 kts 86°
2026-04-18 11:03 40.45200 21.36293 19006 ft 411 kts 86°
2026-04-18 11:03 40.45238 21.40050 19002 ft 411 kts 86°
2026-04-18 11:03 40.45273 21.43794 19004 ft 411 kts 86°
2026-04-18 11:04 40.45305 21.47548 19001 ft 411 kts 86°
2026-04-18 11:04 40.45336 21.51296 19000 ft 411 kts 86°
2026-04-18 11:04 40.45368 21.55043 19000 ft 411 kts 86°
2026-04-18 11:04 40.45401 21.58799 19000 ft 411 kts 86°
2026-04-18 11:05 40.45431 21.62552 19003 ft 411 kts 86°
2026-04-18 11:05 40.45454 21.66312 19004 ft 411 kts 86°
2026-04-18 11:05 40.45476 21.70068 19004 ft 411 kts 86°
2026-04-18 11:05 40.45500 21.73822 19002 ft 411 kts 86°
2026-04-18 11:06 40.45525 21.77574 19002 ft 411 kts 86°
2026-04-18 11:06 40.45553 21.81330 19007 ft 411 kts 86°
2026-04-18 11:06 40.45579 21.85077 19009 ft 410 kts 86°
2026-04-18 11:06 40.45601 21.88823 19010 ft 410 kts 86°
2026-04-18 11:07 40.45618 21.92564 19014 ft 410 kts 86°
2026-04-18 11:07 40.45438 21.96306 19004 ft 414 kts 98°
2026-04-18 11:07 40.44797 21.99992 19004 ft 414 kts 101°
2026-04-18 11:07 40.44127 22.03666 19001 ft 414 kts 101°
2026-04-18 11:08 40.43452 22.07320 18997 ft 407 kts 101°
2026-04-18 11:08 40.42783 22.10913 19003 ft 404 kts 101°
2026-04-18 11:08 40.42122 22.14489 19005 ft 403 kts 101°
2026-04-18 11:08 40.41466 22.18050 19001 ft 401 kts 101°
2026-04-18 11:09 40.40812 22.21605 18998 ft 401 kts 101°
2026-04-18 11:09 40.40157 22.25161 18997 ft 401 kts 101°
2026-04-18 11:09 40.39518 22.28632 18944 ft 391 kts 101°
2026-04-18 11:09 40.38882 22.32064 18621 ft 384 kts 101°
2026-04-18 11:10 40.38253 22.35445 18196 ft 380 kts 101°
2026-04-18 11:10 40.37626 22.38798 17687 ft 377 kts 101°
2026-04-18 11:10 40.37004 22.42124 17219 ft 374 kts 101°
2026-04-18 11:10 40.36545 22.45451 16745 ft 368 kts 88°
2026-04-18 11:11 40.36910 22.48708 16304 ft 358 kts 67°
2026-04-18 11:11 40.38117 22.51485 15870 ft 348 kts 46°
2026-04-18 11:11 40.39897 22.53590 15387 ft 343 kts 36°
2026-04-18 11:11 40.41772 22.55517 14916 ft 342 kts 36°
2026-04-18 11:12 40.43650 22.57424 14460 ft 340 kts 35°
2026-04-18 11:12 40.45519 22.59315 14021 ft 339 kts 36°
2026-04-18 11:12 40.47381 22.61193 13560 ft 337 kts 36°
2026-04-18 11:12 40.49234 22.63061 13082 ft 335 kts 35°
2026-04-18 11:13 40.51073 22.64920 12603 ft 333 kts 36°
2026-04-18 11:13 40.52905 22.66772 12135 ft 331 kts 36°
2026-04-18 11:13 40.54719 22.68608 11672 ft 328 kts 35°
2026-04-18 11:13 40.56522 22.70437 11221 ft 326 kts 36°
2026-04-18 11:14 40.58313 22.72257 10744 ft 323 kts 36°
2026-04-18 11:14 40.60065 22.74043 10214 ft 311 kts 36°
2026-04-18 11:14 40.61706 22.75727 10025 ft 290 kts 36°
2026-04-18 11:14 40.63269 22.77336 9522 ft 282 kts 36°
2026-04-18 11:15 40.64805 22.78917 8925 ft 277 kts 36°
2026-04-18 11:15 40.66310 22.80467 8321 ft 273 kts 36°
2026-04-18 11:15 40.67789 22.81983 7956 ft 260 kts 36°
2026-04-18 11:15 40.69162 22.83391 7746 ft 243 kts 36°
2026-04-18 11:16 40.70479 22.84742 7290 ft 238 kts 36°
2026-04-18 11:16 40.71783 22.86071 6797 ft 236 kts 36°
2026-04-18 11:16 40.73076 22.87384 6341 ft 234 kts 35°
2026-04-18 11:16 40.74364 22.88687 6025 ft 232 kts 36°
2026-04-18 11:17 40.75626 22.89953 6001 ft 223 kts 36°
2026-04-18 11:17 40.76803 22.91218 5985 ft 213 kts 43°
2026-04-18 11:17 40.77740 22.92647 5874 ft 208 kts 58°
2026-04-18 11:17 40.78073 22.94489 5631 ft 211 kts 94°
2026-04-18 11:18 40.77551 22.96326 5369 ft 215 kts 120°
2026-04-18 11:18 40.76703 22.97922 5105 ft 217 kts 134°
2026-04-18 11:18 40.75400 22.98864 4882 ft 216 kts 171°
2026-04-18 11:18 40.73939 22.98606 4637 ft 214 kts 199°
2026-04-18 11:19 40.72506 22.98021 4363 ft 217 kts 197°
2026-04-18 11:19 40.71099 22.97394 4236 ft 212 kts 210°
2026-04-18 11:19 40.70108 22.96042 4101 ft 203 kts 248°
2026-04-18 11:19 40.69924 22.94287 3926 ft 191 kts 278°
2026-04-18 11:20 40.70103 22.92550 3589 ft 192 kts 269°
2026-04-18 11:20 40.69552 22.91024 3515 ft 191 kts 217°
2026-04-18 11:20 40.68299 22.90579 3520 ft 192 kts 167°
2026-04-18 11:20 40.67203 22.91477 3514 ft 189 kts 131°
2026-04-18 11:21 40.66188 22.92576 3474 ft 187 kts 150°
2026-04-18 11:21 40.65024 22.93048 3273 ft 171 kts 168°
2026-04-18 11:21 40.63843 22.93326 2613 ft 176 kts 167°
2026-04-18 11:21 40.62672 22.93657 2282 ft 162 kts 165°
2026-04-18 11:22 40.61614 22.93993 2094 ft 153 kts 163°
2026-04-18 11:22 40.60612 22.94347 1818 ft 146 kts 163°
2026-04-18 11:22 40.59623 22.94654 1495 ft 147 kts 165°
2026-04-18 11:22 40.58632 22.94955 1217 ft 143 kts 163°
2026-04-18 11:23 40.57677 22.95282 951 ft 139 kts 163°
2026-04-18 11:23 40.56736 22.95584 806 ft 141 kts 166°
2026-04-18 11:23 40.55779 22.95887 610 ft 141 kts 167°
2026-04-18 11:23 40.54826 22.96188 435 ft 140 kts 166°
2026-04-18 11:24 40.53895 22.96497 243 ft 138 kts 166°
2026-04-18 11:24 40.52965 22.96783 70 ft 136 kts 168°
2026-04-18 11:24 40.52078 22.97058 27 ft 116 kts 166°
2026-04-18 11:24 40.51466 22.97255 31 ft 57 kts 165°
2026-04-18 11:25 40.51155 22.97355 29 ft 37 kts 168°
2026-04-18 11:25 40.51038 22.97390 28 ft 16 kts 162°
2026-04-18 11:25 40.50963 22.97495 27 ft 18 kts 92°
2026-04-18 11:25 40.51046 22.97572 29 ft 16 kts 353°
2026-04-18 11:26 40.51149 22.97541 29 ft 14 kts 347°
2026-04-18 11:26 40.51239 22.97513 29 ft 13 kts 347°
2026-04-18 11:26 40.51322 22.97488 29 ft 12 kts 346°
2026-04-18 11:26 40.51397 22.97463 29 ft 10 kts 346°
2026-04-18 11:27 40.51465 22.97441 29 ft 9 kts 346°
2026-04-18 11:27 40.51525 22.97421 29 ft 9 kts 346°
2026-04-18 11:27 40.51580 22.97404 29 ft 8 kts 347°
2026-04-18 11:27 40.51629 22.97389 29 ft 7 kts 346°
2026-04-18 11:28 40.51672 22.97375 29 ft 6 kts 346°
2026-04-18 11:28 40.51709 22.97364 29 ft 5 kts 346°
2026-04-18 11:28 40.51741 22.97354 29 ft 4 kts 347°
2026-04-18 11:28 40.51772 22.97344 29 ft 7 kts 347°
2026-04-18 11:29 40.51832 22.97325 28 ft 12 kts 346°
2026-04-18 11:29 40.51918 22.97298 32 ft 13 kts 347°
2026-04-18 11:29 40.52000 22.97273 27 ft 11 kts 347°
2026-04-18 11:29 40.52067 22.97252 28 ft 9 kts 346°
2026-04-18 11:30 40.52128 22.97231 28 ft 10 kts 345°
2026-04-18 11:30 40.52192 22.97210 28 ft 9 kts 347°
2026-04-18 11:30 40.52253 22.97191 28 ft 9 kts 347°
2026-04-18 11:30 40.52313 22.97172 28 ft 8 kts 343°
2026-04-18 11:31 40.52363 22.97171 28 ft 7 kts 27°
2026-04-18 11:31 40.52383 22.97219 28 ft 6 kts 80°
2026-04-18 11:31 40.52390 22.97265 28 ft 5 kts 78°
2026-04-18 11:31 40.52398 22.97302 28 ft 4 kts 69°
2026-04-18 11:32 40.52411 22.97327 28 ft 3 kts 50°
2026-04-18 11:32 40.52423 22.97345 28 ft 2 kts 46°
2026-04-18 11:32 40.52434 22.97358 28 ft 3 kts 43°
2026-04-18 11:32 40.52452 22.97382 28 ft 3 kts 45°
2026-04-18 11:33 40.52458 22.97390 28 ft 0 kts 45°